Powrót do katalogu

OPS 4682 DEB

AktywnyPO
NORAD 38369·DEBRIS·🇺🇸 United States

Wystrzelony Apr 3, 1965 z Vandenberg Space Force Base

Loading…

Następne Przeloty (najbliższe 24 godziny)

TLE

ŚwieżeSource: Space-Track

Epoka: Sep 14, 2026, 13:16 UTC

1 38369U 65027BW  26257.55280299  .00000062  00000-0  18529-3 0  9997
2 38369  90.2450   8.3059 0031360 164.9003 195.3062 12.98492199564625

Śledź OPS 4682 DEB w czasie rzeczywistym z AllMySat

Download on the App Store